Pagina principale
METAR-TAF:

METAR-TAF

Aeroporti :

Khorramabad, Iran

latitudine: 33-26-11N, longitudine: 048-17-09E, altezza: 1155 m

Osservazione

Il bollettino è stato emesso 4 ore e 7 minuti fa, alle 13:00 UTC
Vento 10 kt da ovest
Temperature 36°C
Umidità 8%
Pressione 1015 hPa
Visibilità 10 km o più
nessuna nube inferiore a 1500 m e nessun cumulonembo

METAR: OICK 051300Z 26010KT CAVOK 36/M03 Q1015

Ora: 21:37 (17:07 UTC)


TAF: mancante

Osservazioni e previsioni meteorologiche di più di 4000 aeroporti (messaggi METAR e TAF).

Le stazioni disponibili sono rappresentate dai dischi gialli e rossi sulla carta.

Puntare il mouse per vedere il nome della stazione.

Clicca sopra per visualizzare le osservazioni e previsioni meteorologiche.

Per cambiare la mappa : fare clic sui pulsanti verdi con una croce nera per ingrandire, il pulsante verde con un trattino per diminuire, o sulla freccia verde per le mappe adiacenti.


METAR-TAF: